Location: Falniów
(50.3639°N, 19.9642°E)
Time: 13:06:02
(UTC+00:00)

Cosmos 2082 Rocket - Pass Details

Date: 21 April 2026
Orbit: 831 x 853 km, 71.0° (Epoch: 19 May)

Event Time Altitude Azimuth Distance (km) Brightness Sun altitude
Exits shadow 01:14:22 26° 261° (W) 1,628 3.3 -19.2°
Maximum altitude 01:16:56 39° 311° (NW) 1,254 3.1 -18.9°
Drops below altitude 10° 01:22:18 10° 20° (NNE) 2,494 5.7 -18.3°
Sets 01:24:57 0° 28° (NNE) 3,433 6.8 -18.1°
